Location: Huesca
(42.1318°N, 0.4078°W)
Time: 10:52:01
(UTC+02:00)

SR - All Passes

Search period start: 15 July 2024 00:00
Search period end: 25 July 2024 00:00
Orbit: 580 x 857 km, 66.7° (Epoch: 14 July)

Date Brightness Start Highest point End Pass type
(mag) Time Alt. Az. Time Alt. Az. Time Alt. Az.
15 Jul - 05:57:16 10° S 06:01:46 43° ESE 06:05:58 10° NE visible
15 Jul - 07:40:05 10° WSW 07:43:43 23° NW 07:47:13 10° N daylight
15 Jul - 14:36:15 10° NNW 14:40:08 33° NE 14:44:08 10° ESE daylight
15 Jul - 16:18:15 10° NW 16:21:47 25° WSW 16:25:28 10° SSW daylight
16 Jul - 05:06:11 10° SSE 05:09:31 19° ESE 05:12:42 10° ENE visible
16 Jul - 06:46:33 10° SW 06:51:02 46° NW 06:55:17 10° NNE daylight
16 Jul - 13:44:33 10° N 13:47:21 17° NE 13:50:12 10° E daylight
16 Jul - 15:25:16 10° NW 15:29:30 60° WSW 15:33:55 10° SSE daylight
17 Jul - 05:53:50 10° SSW 05:58:32 78° ESE 06:02:57 10° NNE visible
17 Jul - 07:38:19 10° WNW 07:40:50 15° NW 07:43:17 10° N daylight
17 Jul - 14:32:49 10° NNW 14:37:03 57° ENE 14:41:27 10° SE daylight
17 Jul - 16:16:06 10° WNW 16:18:25 14° WSW 16:20:47 10° SW daylight
18 Jul - 05:01:57 10° S 05:06:11 33° ESE 05:10:10 10° NE visible
18 Jul - 06:44:03 10° WSW 06:48:00 28° NW 06:51:46 10° N daylight
18 Jul - 13:40:46 10° N 13:44:25 26° NE 13:48:10 10° ESE daylight
18 Jul - 15:22:21 10° NW 15:26:13 33° WSW 15:30:15 10° S daylight
19 Jul - 04:11:23 10° SE 04:13:58 15° ESE 04:16:28 10° ENE visible
19 Jul - 05:50:46 10° SW 05:55:21 59° WNW 05:59:42 10° NNE visible
19 Jul - 12:49:18 10° N 12:51:33 14° NE 12:53:48 10° ENE daylight
19 Jul - 14:29:33 10° NNW 14:33:52 79° WSW 14:38:22 10° SSE daylight
20 Jul - 04:58:17 10° SSW 05:02:53 60° ESE 05:07:13 10° NE visible
20 Jul - 06:41:58 10° W 06:45:01 18° NW 06:48:00 10° N daylight
20 Jul - 13:37:13 10° NNW 13:41:21 44° NE 13:45:38 10° SE daylight
20 Jul - 15:19:49 10° WNW 15:22:50 19° WSW 15:25:58 10° SSW daylight
21 Jul - 04:06:42 10° SSE 04:10:33 26° ESE 04:14:14 10° NE visible
21 Jul - 05:48:02 10° WSW 05:52:14 34° NW 05:56:14 10° NNE visible
21 Jul - 12:45:17 10° N 12:48:37 22° NE 12:52:03 10° E daylight
21 Jul - 14:26:29 10° NW 14:30:35 43° WSW 14:34:52 10° S daylight
22 Jul - 03:17:08 10° ESE 03:18:23 11° ESE 03:19:38 10° E visible
22 Jul - 04:55:00 10° SW 04:59:39 77° WNW 05:04:01 10° NNE visible
22 Jul - 06:40:44 10° WNW 06:42:09 11° NW 06:43:32 10° NNW daylight
22 Jul - 11:54:16 10° NNE 11:55:40 11° NE 11:57:04 10° ENE daylight
22 Jul - 13:33:50 10° NNW 13:38:10 79° ENE 13:42:40 10° SSE daylight
22 Jul - 15:19:20 10° WSW 15:19:22 10° WSW 15:19:24 10° WSW daylight
23 Jul - 04:02:45 10° S 04:07:12 45° ESE 04:11:24 10° NE visible
23 Jul - 05:45:42 10° W 05:49:11 21° NW 05:52:33 10° N visible
23 Jul - 12:41:36 10° NNW 12:45:33 35° NE 12:49:40 10° ESE daylight
23 Jul - 14:23:41 10° WNW 14:27:12 24° WSW 14:30:51 10° SSW daylight
24 Jul - 03:11:33 10° SSE 03:14:54 20° ESE 03:18:08 10° ENE visible
24 Jul - 04:52:04 10° SW 04:56:26 43° NW 05:00:36 10° NNE visible
24 Jul - 11:49:49 10° N 11:52:45 18° NE 11:55:46 10° E daylight
24 Jul - 13:30:37 10° NW 13:34:52 57° WSW 13:39:20 10° SSE daylight
